Theta_e
325 321 326 328 328 327 327 327 327 327 327 328 328 330 333 331 335 335 333 337 340 343 347 348 348 350 350 349 351 351 352 352 353 354 354 355 356 356 357 358 358 359 356 357
328 326 327 328 327 327 328 328 328 328 328 327 334 336 340 339 339 340 333 337 336 338 343 346 346 348 349 349 350 352 353 354 354 355 356 355 357 359 360 361 358 357 363 363
326 326 327 328 327 326 326 327 327 328 328 338 339 340 339 337 339 337 337 339 340 341 337 338 341 344 347 348 349 352 354 355 356 356 358 358 361 362 363 360 360 360 359 357
323 326 330 326 326 326 327 331 333 336 338 338 336 335 333 335 335 335 336 338 340 341 341 339 335 339 343 345 349 352 355 356 357 357 359 361 361 360 359 359 358 358 355 351
322 323 323 324 326 326 329 335 336 336 334 332 332 332 334 333 332 335 337 338 339 340 344 345 335 339 342 345 348 351 354 356 358 357 359 359 357 358 358 355 357 352 348 340
322 322 322 323 323 327 327 328 330 333 332 329 329 333 333 331 335 338 339 340 344 346 348 347 338 338 342 345 349 352 354 356 358 360 357 356 354 350 350 347 344 334 341 342
326 324 322 324 327 328 330 329 332 331 328 329 330 331 334 336 339 341 343 346 348 350 349 344 338 340 345 348 352 352 355 357 358 355 353 350 346 341 338 338 338 338 343 344
324 325 326 326 328 328 327 327 329 326 327 329 332 333 335 337 339 342 348 348 351 353 348 345 346 344 348 353 354 356 356 357 354 353 348 351 350 342 344 341 342 344 343 339
325 325 328 326 326 324 325 327 325 326 326 327 330 334 336 339 339 345 349 351 356 356 354 354 352 350 353 357 356 355 353 351 350 348 345 343 343 341 340 341 344 343 344 340
324 323 326 326 324 324 326 322 324 325 326 326 330 331 337 339 341 348 350 352 356 358 357 355 356 355 355 354 355 352 352 350 346 345 344 344 344 344 345 346 346 343 338 331
321 320 320 321 322 323 322 322 323 324 325 327 330 332 338 339 343 349 350 352 355 354 351 351 351 350 350 350 351 350 349 343 337 334 330 328 323 327 326 326 330 328 325 324
322 319 320 321 321 321 322 322 323 325 326 329 330 337 342 342 346 347 348 350 346 344 345 343 342 342 345 347 347 346 341 336 332 329 326 322 318 314 315 319 321 320 319 317
321 321 319 319 319 321 322 321 322 325 328 330 331 337 343 346 345 341 344 345 341 337 338 339 341 343 343 342 339 337 334 331 325 326 324 322 321 318 313 310 313 313 312 312
319 320 322 320 322 320 322 323 324 325 327 327 332 336 339 340 337 336 335 335 336 337 337 338 338 337 336 335 334 332 330 330 328 326 324 324 323 321 320 320 317 312 309 309
322 320 319 320 320 321 322 324 325 327 327 327 334 336 339 338 337 336 335 335 335 335 333 331 331 331 329 329 328 326 325 323 324 325 324 322 320 318 316 315 314 313 311 309
322 322 321 321 321 322 323 326 329 330 330 334 333 337 335 331 328 325 325 330 332 328 326 325 324 323 324 325 324 322 320 319 319 318 317 316 315 314 314 314 314 313 313 312
325 326 325 324 325 327 327 329 332 331 333 331 338 336 335 333 330 327 323 323 322 322 322 322 321 322 321 321 321 319 318 316 315 316 315 314 314 314 314 313 313 312 311 308
324 324 325 326 327 328 332 334 331 332 331 334 332 334 333 331 329 326 323 321 321 319 318 320 321 319 317 318 318 317 315 314 314 313 313 313 313 313 313 312 312 311 308 305
328 328 328 330 331 332 334 335 336 334 331 333 334 334 331 329 326 324 323 321 319 319 317 317 318 316 316 315 314 313 313 312 312 312 311 311 312 311 311 310 309 308 307 307
332 331 331 332 332 334 335 334 334 331 331 334 333 330 329 326 325 323 322 320 318 317 316 315 314 313 312 310 311 312 312 312 312 312 312 312 311 310 308 308 308 308 308 309
333 334 334 334 335 335 334 333 333 334 334 332 331 329 326 323 320 318 318 317 316 315 314 313 313 312 311 311 311 311 312 312 312 311 311 310 309 308 308 309 309 309 309 308
333 332 332 333 334 334 335 335 334 333 332 331 330 327 324 321 319 318 318 317 315 315 315 314 312 309 309 310 311 311 311 311 311 310 310 309 309 308 309 309 309 309 308 308
330 331 331 331 331 332 333 333 332 331 330 329 328 326 324 322 320 320 319 316 316 316 316 312 308 308 309 311 311 310 310 310 310 309 308 308 308 308 309 309 309 308 309 309
329 330 331 330 331 330 331 328 328 328 328 328 326 326 323 322 319 318 316 316 315 316 314 312 308 307 308 309 310 309 309 309 308 308 308 306 308 308 308 309 309 310 309 309
326 326 328 328 330 332 331 329 328 328 328 328 326 325 324 323 320 317 317 315 315 316 314 312 311 309 310 310 310 310 309 309 309 309 308 309 309 309 310 310 310 310 311 311
324 324 325 324 326 327 329 329 328 328 327 325 323 320 319 317 316 316 316 316 316 315 315 315 314 313 313 312 312 311 311 311 310 310 310 311 311 311 311 311 311 311 311 311
322 322 324 325 324 324 326 327 328 326 324 322 321 319 318 317 316 315 314 314 313 313 313 314 314 313 314 314 313 313 313 313 312 313 312 312 312 312 311 312 312 312 311 311
Wind_Speed
12 11 8 13 17 15 13 13 8 10 8 18 12 13 14 15 16 16 15 8 9 14 13 14 19 23 27 30 29 30 31 30 30 30 27 25 25 26 22 19 17 17 20 20
12 13 16 21 20 19 19 17 14 17 18 12 8 10 14 14 15 16 14 15 13 11 14 14 20 26 27 29 29 32 32 30 30 29 29 31 28 22 17 16 18 19 13 11
17 12 14 17 23 23 23 19 17 18 13 6 12 9 13 19 14 13 18 18 16 13 14 18 23 25 28 30 30 32 31 30 30 31 30 28 22 20 20 21 20 18 17 17
11 8 18 15 6 2 9 1 3 3 3 5 11 17 15 10 8 18 20 19 18 16 18 18 22 25 26 27 30 30 30 32 33 32 28 22 22 23 24 23 23 23 18 13
9 13 18 13 8 11 8 5 2 2 4 9 13 15 2 5 20 20 22 21 19 26 28 25 22 23 27 28 29 32 33 32 31 31 25 25 23 26 26 27 24 21 17 8
7 15 12 2 9 10 6 13 3 3 6 11 13 7 4 21 23 24 22 26 27 33 33 29 20 21 27 28 31 30 29 28 22 20 22 22 21 15 15 17 22 12 7 10
19 14 9 8 4 1 14 2 3 5 9 10 8 7 18 23 22 21 24 31 32 32 28 27 16 20 25 25 29 25 20 24 27 27 29 31 26 12 9 4 2 8 9 10
11 16 22 4 3 7 4 2 3 7 10 13 14 16 17 22 21 23 22 27 33 27 22 18 11 20 22 19 17 26 29 29 35 39 31 38 37 29 20 11 10 11 12 10
6 6 5 5 5 5 2 1 7 10 11 13 16 17 18 19 23 21 21 23 24 20 15 8 9 15 13 15 25 30 31 28 28 24 23 21 32 28 25 21 14 12 10 8
11 10 12 11 9 10 5 6 8 12 14 16 17 18 19 17 19 18 18 17 17 13 6 1 4 8 15 21 26 30 31 28 29 29 25 22 22 24 21 15 12 9 9 8
23 21 20 20 18 14 8 9 10 11 15 19 18 20 20 18 18 17 17 18 5 2 4 7 11 16 16 22 27 29 32 30 29 29 28 28 25 19 16 14 11 12 10 9
19 19 17 17 15 15 15 15 16 15 17 17 17 19 20 16 14 15 14 9 7 9 8 10 17 22 23 27 30 31 29 25 23 26 26 27 30 30 29 23 18 16 13 10
23 25 25 22 21 18 18 19 16 15 15 16 19 16 20 14 11 13 13 5 9 14 15 18 23 24 25 31 34 34 31 24 22 18 20 23 23 24 23 18 18 14 10 9
24 23 22 22 18 18 14 15 12 15 18 17 16 21 16 3 5 6 8 10 15 18 18 23 25 26 21 36 37 32 39 32 30 17 18 18 19 19 16 14 12 11 12 11
25 23 23 21 17 17 14 12 14 14 14 14 10 12 6 8 7 9 18 23 26 28 27 26 26 20 27 33 40 29 26 28 24 20 16 17 17 16 15 15 13 13 11 11
17 19 20 21 20 17 15 14 14 13 10 8 6 3 8 17 20 22 27 28 22 19 27 27 24 18 22 30 32 25 28 28 23 21 18 15 13 14 15 15 13 12 11 10
16 14 13 14 14 14 15 13 12 8 7 4 7 7 6 14 23 23 27 31 29 27 27 29 25 16 13 18 22 23 21 18 19 16 14 14 13 14 14 13 13 13 12 9
16 14 14 15 13 13 12 10 13 9 9 12 12 14 13 17 15 22 22 30 35 30 24 26 25 16 10 16 20 19 16 13 13 14 15 15 14 15 15 14 13 12 11 8
12 12 13 10 10 5 4 10 12 18 15 17 15 12 13 24 23 24 26 30 24 25 16 23 25 16 15 15 17 15 16 14 14 14 15 17 16 15 13 12 12 11 9 7
7 5 5 7 8 8 9 13 16 18 15 16 18 16 12 14 20 21 23 17 14 21 20 21 17 15 15 15 15 15 15 13 14 14 14 14 13 12 12 12 10 8 7 5
17 16 13 10 11 12 7 15 16 12 16 19 20 17 18 16 18 25 21 13 12 25 21 18 14 14 15 15 15 15 15 15 13 13 12 12 12 12 11 8 6 4 4 2
13 13 12 13 12 14 21 23 23 21 20 20 22 21 21 18 18 21 16 19 17 18 19 17 15 15 16 16 14 14 14 13 13 12 11 10 9 9 7 4 2 1 1 0
12 13 14 13 11 17 22 22 21 21 20 22 23 21 18 16 18 19 12 12 16 19 17 15 15 15 16 13 14 14 14 14 12 11 10 9 7 5 2 2 2 2 3 4
14 17 16 18 19 20 15 19 22 21 22 22 20 18 20 21 19 18 19 18 18 16 15 14 16 17 17 14 14 13 12 11 9 8 6 6 3 2 2 4 4 6 6 7
18 18 19 20 15 12 18 19 21 19 20 20 17 17 19 17 21 16 14 14 15 15 15 15 16 15 14 12 11 10 8 6 5 4 2 0 3 5 6 7 8 9 9 10
17 14 14 16 14 14 13 15 16 14 17 17 15 16 19 18 17 16 15 15 14 13 11 10 9 9 8 7 6 4 3 2 2 2 5 5 6 9 10 11 12 13 12 12
12 12 11 14 15 14 14 15 16 15 16 18 20 15 16 16 15 14 14 13 11 11 10 9 7 5 3 2 1 1 3 5 6 8 9 9 11 15 15 15 16 15 14 14
Wind_Direction
254 252 262 271 279 276 246 246 245 256 250 282 325 316 318 318 329 347 3 347 246 237 231 211 207 203 204 207 205 202 199 201 203 207 211 210 211 213 213 214 220 223 227 226
263 270 269 268 265 261 260 254 251 252 260 287 297 303 313 327 337 342 2 4 351 297 251 231 219 208 204 204 202 197 199 201 201 200 202 206 208 201 194 196 206 214 218 220
264 265 273 270 254 247 250 246 240 244 250 307 299 301 323 316 332 350 340 336 330 322 305 265 234 219 215 204 194 197 198 196 196 198 200 203 193 183 180 189 191 193 203 206
267 249 244 246 235 248 262 262 204 141 34 327 310 309 304 299 16 340 333 327 321 317 307 300 266 233 212 202 198 195 198 195 194 196 196 185 177 173 179 181 185 193 188 194
238 227 257 248 241 223 204 155 37 5 352 333 329 307 123 54 346 334 324 317 308 312 304 296 272 226 197 188 193 197 196 197 195 187 180 168 168 180 178 179 182 190 182 191
209 233 241 293 233 297 247 247 20 4 354 343 342 317 314 335 327 322 318 316 315 313 306 297 276 220 195 192 186 201 203 187 185 173 157 157 154 166 166 177 168 180 161 142
224 238 258 262 295 175 199 167 36 353 335 330 320 308 307 312 316 315 312 315 316 310 300 293 271 216 202 193 199 188 174 159 150 152 155 149 133 119 110 79 171 145 131 121
226 234 246 339 242 242 18 291 330 329 328 321 313 309 314 310 314 315 316 321 322 312 305 295 240 209 201 196 173 150 149 150 151 157 163 166 153 156 153 177 170 148 140 125
230 213 125 64 51 347 255 141 327 321 320 320 312 310 312 307 309 311 314 318 322 314 301 277 227 208 185 148 147 139 140 145 144 141 138 144 140 134 125 155 156 162 152 138
280 257 236 265 291 296 209 306 312 308 313 314 306 307 302 300 304 307 307 314 321 305 280 11 138 141 149 147 148 143 134 131 127 123 119 116 111 115 127 149 143 138 123 113
263 261 271 264 265 270 261 303 312 302 303 306 308 307 303 298 294 295 303 305 353 83 129 119 120 117 131 133 133 127 123 120 119 116 114 108 95 93 103 97 115 114 107 110
250 255 255 263 273 276 280 291 303 298 302 298 305 303 298 286 284 287 287 266 130 130 117 106 103 101 111 119 120 114 109 114 119 118 115 109 105 93 91 99 103 102 107 114
252 252 255 257 263 272 271 276 270 281 278 290 301 300 297 287 285 296 263 197 109 106 109 110 107 109 112 113 109 107 104 101 98 102 113 118 111 109 109 92 96 92 85 79
246 248 253 253 253 252 251 259 261 269 271 279 283 298 285 294 35 46 61 81 103 102 96 102 97 92 100 115 118 119 119 130 117 121 113 115 123 126 137 138 123 101 84 98
250 243 243 251 246 241 254 258 268 263 258 271 278 281 134 110 96 86 88 84 82 76 65 66 72 80 103 114 110 107 112 96 105 109 117 128 128 129 127 115 110 111 114 97
252 242 235 236 243 245 245 252 248 251 236 228 262 135 130 116 101 80 75 77 82 83 82 74 63 65 97 108 101 101 98 113 115 124 130 119 121 113 107 110 117 117 108 100
200 214 216 220 219 220 238 240 237 228 175 172 184 138 116 103 93 93 85 84 78 74 85 90 91 81 91 98 103 102 105 110 112 108 113 113 106 105 108 111 111 104 98 97
190 211 230 233 238 233 225 212 195 157 148 158 136 120 106 99 95 90 86 99 94 79 74 94 96 95 92 93 97 102 102 108 110 104 100 97 106 107 106 108 109 108 106 106
162 174 196 192 202 212 222 179 177 179 145 138 123 102 113 109 106 104 102 95 91 90 87 99 101 107 102 100 103 103 102 101 99 100 109 113 102 100 107 110 108 109 112 104
111 158 192 191 197 217 163 142 139 140 150 116 99 97 101 97 109 98 95 81 91 108 107 104 107 107 103 101 95 94 100 105 103 98 93 94 101 104 102 107 115 119 122 132
39 48 82 91 77 77 154 164 126 123 126 124 123 121 111 103 99 101 99 99 90 99 105 107 105 89 82 84 80 84 83 83 89 98 101 104 108 112 117 118 110 112 121 129
32 39 37 46 59 64 74 106 119 124 120 119 119 117 113 108 106 89 98 108 113 100 89 80 78 83 86 85 87 92 99 100 99 99 100 108 116 119 119 115 134 156 142 227
40 42 44 36 46 65 73 85 94 104 112 118 119 115 116 116 115 116 108 105 102 96 87 87 91 93 95 95 91 89 89 90 95 101 106 113 114 120 137 160 224 254 278 299
50 50 56 72 79 79 79 87 95 99 100 101 109 118 121 108 85 95 108 113 113 102 106 102 88 83 80 80 81 81 79 82 89 97 112 127 137 173 224 249 270 275 281 287
34 39 47 55 58 69 78 82 83 89 96 96 93 91 101 106 119 121 116 115 105 96 95 86 76 74 74 74 78 80 79 88 105 108 96 225 254 256 261 266 266 270 276 279
41 38 38 47 50 60 72 81 84 90 93 88 84 94 101 106 110 110 108 107 104 101 99 94 87 80 75 74 80 72 52 23 19 310 264 262 270 270 269 267 270 271 271 274
47 48 52 54 44 54 71 83 91 88 92 96 95 92 96 94 92 91 94 96 92 93 98 106 112 113 114 96 62 13 300 299 295 283 280 279 274 275 277 275 270 268 268 270